Chippewa, MI

8:13 AM EST on December 06, 2019 (GMT -0500)
Chippewa County International

Weather History for KCIU - October, 2019

Change the Weather History Date:

Thursday, October 10, 2019

  Actual Average Record
Temperature  
Mean Temperature 56 °F -  
Max Temperature 64 °F 55 °F 73 °F (2011)
Min Temperature 48 °F 33 °F 20 °F (1989)
Degree Days  
Heating Degree Days 10    
Growing Degree Days 6 (Base 50)    
Moisture  
Dew Point 48 °F    
Average Humidity 79    
Maximum Humidity 100    
Minimum Humidity 53    
Precipitation  
Precipitation 0.00 in - - ()
Sea Level Pressure  
Sea Level Pressure 30.22 in    
Wind  
Wind Speed 11 mph ()    
Max Wind Speed 21 mph    
Max Gust Speed 25 mph    
Visibility 10.0 miles    
Events      
Averages and records for this station are not official NWS values.
T = Trace of Precipitation, MM = Missing Value Source: Averaged Metar Reports

Daily Weather History Graph

Daily Weather History Graph

Search for Another Location

Airport or City:

Astronomy

Oct. 10, 2019 Rise Set
Actual Time 7:47 AM EDT 7:01 PM EDT
Civil Twilight 7:17 AM EDT 7:31 PM EDT
Nautical Twilight 6:43 AM EDT 8:05 PM EDT
Astronomical Twilight 6:08 AM EDT 8:40 PM EDT
Moon 6:15 PM EDT (10/10) 4:14 AM EDT (10/10)
Length of Visible Light 12h 13m
Length of Day
11h 13m
Waxing Gibbous, 91% of the Moon is Illuminated
Oct 10
Waxing Gibbous
Oct 13
Full
Oct 21
Last Quarter
Oct 27
New
Nov 4
First Quarter

Hourly Weather History & Observations

Time (EDT) Temp. Dew Point Humidity Pressure Visibility Wind Dir Wind Speed Gust Speed Precip Events Conditions
12:56 AM 50.0 °F 48.9 °F 96% 30.25 in 10.0 mi ESE 10.4 mph - N/A   Clear
1:56 AM 48.9 °F 48.9 °F 100% 30.25 in 10.0 mi ESE 9.2 mph - N/A   Clear
2:56 AM 48.9 °F 48.9 °F 100% 30.25 in 10.0 mi ESE 8.1 mph - N/A   Clear
3:56 AM 48.9 °F 48.0 °F 97% 30.24 in 10.0 mi SE 6.9 mph - N/A   Clear
4:56 AM 48.9 °F 48.9 °F 100% 30.24 in 10.0 mi ESE 9.2 mph - N/A   Clear
5:56 AM 48.9 °F 48.0 °F 97% 30.25 in 10.0 mi East 8.1 mph - N/A   Clear
6:56 AM 48.0 °F 48.0 °F 100% 30.27 in 10.0 mi ESE 6.9 mph - N/A   Clear
7:56 AM 48.9 °F 46.9 °F 93% 30.27 in 10.0 mi East 10.4 mph - N/A   Clear
8:56 AM 51.1 °F 48.9 °F 92% 30.27 in 10.0 mi ESE 12.7 mph - N/A   Clear
9:56 AM 53.1 °F 50.0 °F 89% 30.27 in 10.0 mi ESE 11.5 mph - N/A   Clear
10:24 AM 53.6 °F 51.8 °F 94% 30.26 in 10.0 mi ESE 12.7 mph - N/A   Scattered Clouds
10:56 AM 55.0 °F 51.1 °F 86% 30.27 in 10.0 mi ESE 12.7 mph - N/A   Mostly Cloudy
11:20 AM 55.4 °F 51.8 °F 88% 30.25 in 10.0 mi ESE 13.8 mph - N/A   Mostly Cloudy
11:41 AM 57.2 °F 51.8 °F 82% 30.25 in 10.0 mi SE 12.7 mph - N/A   Overcast
11:56 AM 57.0 °F 50.0 °F 77% 30.27 in 10.0 mi SE 13.8 mph - N/A   Overcast
12:56 PM 59.0 °F 48.9 °F 69% 30.25 in 10.0 mi ESE 17.3 mph - N/A   Mostly Cloudy
1:22 PM 60.8 °F 48.2 °F 63% 30.23 in 10.0 mi ESE 16.1 mph 23.0 mph N/A   Scattered Clouds
1:31 PM 60.8 °F 48.2 °F 63% 30.22 in 10.0 mi ESE 20.7 mph 25.3 mph N/A   Mostly Cloudy
1:40 PM 60.8 °F 48.2 °F 63% 30.23 in 10.0 mi SE 17.3 mph 25.3 mph N/A   Scattered Clouds
1:56 PM 63.0 °F 48.0 °F 58% 30.23 in 10.0 mi ESE 18.4 mph 23.0 mph N/A   Partly Cloudy
2:56 PM 63.0 °F 46.9 °F 56% 30.22 in 10.0 mi SE 18.4 mph - N/A   Clear
3:40 PM 62.6 °F 48.2 °F 59% 30.19 in 10.0 mi SE 13.8 mph - N/A   Partly Cloudy
3:56 PM 61.0 °F 45.0 °F 56% 30.19 in 10.0 mi ESE 17.3 mph - N/A   Clear
4:56 PM 61.0 °F 46.9 °F 60% 30.17 in 10.0 mi ESE 15.0 mph 23.0 mph N/A   Clear
5:56 PM 59.0 °F 42.1 °F 53% 30.18 in 10.0 mi ESE 18.4 mph 25.3 mph N/A   Clear
6:56 PM 55.9 °F 41.0 °F 57% 30.17 in 10.0 mi ESE 11.5 mph - N/A   Clear
7:56 PM 53.1 °F 44.1 °F 71% 30.18 in 10.0 mi SE 10.4 mph - N/A   Clear
8:56 PM 53.1 °F 46.9 °F 80% 30.16 in 10.0 mi ESE 16.1 mph - N/A   Clear
9:56 PM 52.0 °F 46.9 °F 83% 30.17 in 10.0 mi SE 11.5 mph - N/A   Clear
10:56 PM 51.1 °F 48.0 °F 89% 30.16 in 10.0 mi ESE 11.5 mph - N/A   Clear
11:56 PM 52.0 °F 48.0 °F 86% 30.14 in 10.0 mi ESE 11.5 mph - N/A   Clear